User: anonymous   Login
Location: Goheenville
(40.9070°N, 79.3720°W)
Time: 11:46:09
(UTC-04:00)
Language:

Cosmos 1727 Rocket - Orbit

View from above orbital plane
View from above orbital plane
View from above satellite
View from above satellite

Ground track
Ground track

The orbit data is extracted from the following two-line orbital elements,

1 16511U 86008B   16181.88692998  .00000006  00000-0 -92004-5 0  9999
2 16511  82.9454 121.1922 0023915 183.6059 235.0948 13.75804569527832
Epoch (UTC): 29 June 2016 21:17:10
Eccentricity: 0.0023915
inclination: 82.9454°
perigee height: 961 km
apogee height: 996 km
right ascension of ascending node: 121.1922°
argument of perigee: 183.6059°
revolutions per day: 13.75804569
mean anomaly at epoch: 235.0948°
orbit number at epoch: 52783

The dashed part of the orbit path shows where the satellite is in the earth's shadow,  

DLR